date,time,DOY,Ta_1_1_1,Pa_1_1_1,RH_1_1_1,LWin_1_1_1,LWout_1_1_1,SWin_1_1_1,SWout_1_1_1,PPFD_1_1_1,MWS_1_1_1,WD_1_1_1,SWC_1_1_1,Ts_1_1_1
[yyyy-mm-dd],[HH:MM],[ddd.ddd],[K],[Pa],[%],[W+1m-2],[W+1m-2],[W+1m-2],[W+1m-2],[µmol+1m-2s-1],[m+1s-1],[deg],[m+3m-3],[K]
2018-11-23,00:30,327.020,267.49433333333349,94866.333333333328,86.165999999999983,291.07266666666669,290.75333333333327,-3.13333333333333380E-002,4.86666666666666775E-002,1.00000000000000002E-003,5.8499999999999970,96.278000000000006,0.28999999999999992,275.24399999999997
2018-11-23,01:00,327.041,267.60333333333330,94858.466666666660,86.270333333333355,291.61300000000000,291.35000000000008,-6.66666666666666709E-003,3.20000000000000007E-002,-1.00000000000000002E-003,4.9300000000000006,108.04433333333333,0.28999999999999992,275.24766666666670
2018-11-23,01:30,327.062,267.78100000000001,94827.233333333337,86.369666666666646,292.32233333333346,292.08566666666661,-2.46666666666666735E-002,4.00000000000000147E-002,5.00000000000000010E-003,4.9699999999999998,94.743666666666655,0.28999999999999992,275.24799999999993
2018-11-23,02:00,327.083,268.00766666666681,94791.000000000000,86.566666666666634,293.28000000000003,293.07266666666663,-4.26666666666666722E-002,6.76666666666666805E-002,-6.00000000000000012E-003,5.4500000000000011,97.232666666666645,0.28999999999999992,275.24799999999993
2018-11-23,02:30,327.104,268.25666666666660,94756.399999999994,86.734333333333353,294.33233333333334,294.14633333333330,-5.33333333333333229E-003,6.13333333333333577E-002,1.00000000000000002E-003,5.4399999999999986,119.03233333333331,0.28999999999999992,275.25033333333334
2018-11-23,03:00,327.124,268.56866666666667,94716.233333333337,86.923333333333360,295.64333333333332,295.48166666666663,-2.80000000000000041E-002,7.46666666666666728E-002,1.00000000000000019E-002,5.0466666666666651,116.63366666666667,0.28999999999999992,275.25000000000000
2018-11-23,03:30,327.145,268.81133333333327,94695.733333333337,87.094666666666640,296.74333333333323,296.60466666666667,-3.00000000000000093E-002,7.50000000000000389E-002,2.00000000000000004E-003,4.5966666666666667,116.22266666666668,0.28999999999999992,275.24733333333336
2018-11-23,04:00,327.166,269.11533333333335,94667.500000000000,87.340999999999980,298.09599999999995,297.97800000000001,-1.20000000000000002E-002,0.10533333333333336,2.00000000000000004E-003,4.5766666666666653,115.06700000000001,0.28999999999999992,275.24833333333333
2018-11-23,04:30,327.187,269.55200000000008,94632.300000000003,87.569333333333333,299.91499999999991,299.82866666666661,-2.40000000000000005E-002,0.12166666666666667,5.00000000000000010E-003,4.4100000000000001,118.84466666666667,0.28999999999999992,275.24366666666668
2018-11-23,05:00,327.208,270.02233333333339,94592.199999999997,87.784000000000020,301.87233333333330,301.80233333333331,4.00000000000000008E-003,0.12966666666666671,-1.00000000000000002E-003,3.9199999999999999,128.37800000000001,0.28999999999999992,275.24633333333333
2018-11-23,05:30,327.229,270.51700000000005,94550.333333333328,87.919666666666657,303.97166666666664,303.89933333333317,-1.33333333333333307E-003,9.53333333333333671E-002,4.00000000000000008E-003,3.8366666666666669,132.98966666666669,0.28999999999999992,275.24799999999999
2018-11-23,06:00,327.249,270.88900000000001,94505.266666666663,88.097999999999999,305.53733333333332,305.50600000000009,-7.00000000000000362E-003,0.10700000000000001,2.00000000000000004E-003,3.6400000000000001,120.97766666666666,0.28999999999999992,275.25066666666669
2018-11-23,06:30,327.270,271.25566666666674,94459.866666666669,88.269333333333336,307.21433333333334,307.13766666666675,-6.70000000000000040E-002,7.83333333333333659E-002,9.00000000000000105E-003,3.7733333333333339,126.66666666666669,0.28999999999999992,275.24833333333333
2018-11-23,07:00,327.291,271.53900000000004,94413.033333333340,88.451333333333324,308.32199999999995,308.27766666666673,-1.60000000000000003E-002,8.93333333333333618E-002,1.19999999999999985E-002,3.8466666666666662,117.47766666666666,0.28999999999999992,275.24733333333336
2018-11-23,07:30,327.312,271.92200000000014,94378.800000000003,88.653000000000020,309.96733333333339,309.95400000000001,-3.06666666666666650E-002,5.40000000000000202E-002,2.10000000000000048E-002,4.7433333333333341,116.92266666666667,0.28999999999999992,275.25166666666672
2018-11-23,08:00,327.333,272.32433333333341,94355.500000000000,88.978666666666641,311.62900000000002,311.62933333333331,1.26666666666666646E-002,3.13333333333333380E-002,2.63333333333333371E-002,3.4866666666666668,128.13299999999998,0.28999999999999992,275.25400000000002
2018-11-23,08:30,327.354,272.60433333333333,94335.633333333331,89.203666666666649,312.86633333333333,312.84866666666659,-1.46666666666666629E-002,5.33333333333333402E-003,1.86666666666666682E-002,3.9799999999999995,107.85500000000000,0.28999999999999992,275.25400000000008
2018-11-23,09:00,327.374,272.82766666666669,94302.033333333340,89.406666666666680,313.78566666666671,313.79066666666671,3.53333333333333416E-002,-9.33333333333333411E-003,2.56666666666666744E-002,3.6566666666666676,135.06600000000000,0.28999999999999992,275.25299999999999
2018-11-23,09:30,327.395,273.11999999999995,94267.300000000003,89.652333333333303,315.14900000000017,315.17766666666665,5.26666666666666880E-002,-1.80000000000000021E-002,2.46666666666666735E-002,3.6933333333333334,126.56666666666666,0.28999999999999992,275.25233333333341
2018-11-23,10:00,327.416,273.22100000000012,94230.699999999997,89.699999999999989,315.69200000000001,315.88733333333334,3.46666666666666720E-002,-4.66666666666666619E-003,2.70000000000000101E-002,2.9933333333333336,157.24433333333334,0.28999999999999992,275.25166666666672
2018-11-23,10:30,327.437,273.26000000000016,94193.233333333337,89.699999999999989,315.68599999999992,315.90600000000006,4.03333333333333321E-002,-4.66666666666666705E-003,1.70000000000000012E-002,3.3300000000000001,156.12300000000002,0.28999999999999992,275.25200000000007
2018-11-23,11:00,327.458,273.26100000000014,94167.500000000000,89.647999999999954,316.08399999999995,315.88633333333343,9.70000000000000306E-002,-1.20000000000000020E-002,1.80000000000000021E-002,3.2033333333333331,120.68933333333334,0.28999999999999992,275.25466666666671
2018-11-23,11:30,327.479,273.27533333333338,94146.333333333328,89.633666666666628,316.19733333333335,315.67566666666664,0.10900000000000004,-5.83333333333333481E-002,2.50000000000000014E-002,3.6833333333333331,104.72166666666665,0.28999999999999992,275.25500000000005
2018-11-23,12:00,327.499,273.27300000000014,94119.000000000000,89.594333333333282,316.15066666666661,310.98633333333328,7.20000000000000362E-002,-0.11866666666666670,1.20000000000000002E-002,3.9733333333333340,108.32233333333332,0.28999999999999992,275.25633333333343
2018-11-23,12:30,327.520,273.21999999999997,94092.100000000006,89.656333333333293,315.95366666666661,309.43066666666658,4.40000000000000113E-002,-0.12000000000000004,1.43333333333333316E-002,4.0666666666666664,114.45466666666665,0.28999999999999992,275.25366666666667
2018-11-23,13:00,327.541,273.22466666666674,94065.533333333340,89.624666666666641,315.96033333333332,308.44166666666666,0.20766666666666664,0.30600000000000005,0.52066666666666661,3.7866666666666666,109.14499999999998,0.28999999999999992,275.25733333333335
2018-11-23,13:30,327.562,273.23900000000015,94034.699999999997,89.442000000000036,315.70166666666665,293.26833333333332,1.7126666666666666,6.0106666666666655,13.952333333333335,4.0266666666666673,112.26733333333335,0.28999999999999992,275.25533333333340
2018-11-23,14:00,327.583,273.21266666666662,94015.766666666663,89.259999999999962,315.75299999999999,290.80733333333325,6.3373333333333317,26.088000000000005,59.550333333333342,3.9433333333333334,128.14466666666667,0.28999999999999992,275.25600000000009
2018-11-23,14:30,327.604,273.28133333333341,93987.133333333331,88.973666666666702,316.21033333333327,286.65933333333334,16.837999999999997,71.243666666666655,160.02833333333331,3.1333333333333337,104.28899999999999,0.28999999999999992,275.25866666666678
2018-11-23,15:00,327.624,273.43766666666676,93949.266666666663,88.434999999999988,316.95433333333330,280.67566666666670,30.169000000000000,122.91266666666667,280.73899999999998,3.8233333333333337,107.95433333333332,0.28999999999999992,275.25900000000013
2018-11-23,15:30,327.645,273.83200000000011,93917.766666666663,87.583000000000027,319.74966666666671,286.04333333333324,40.581666666666671,166.25566666666663,364.87800000000004,3.2433333333333323,102.55600000000001,0.28999999999999992,275.26266666666680
2018-11-23,16:00,327.666,274.73766666666677,93874.233333333337,82.882666666666665,322.77899999999994,283.91433333333339,40.503000000000007,209.86599999999996,412.66733333333320,2.8900000000000006,116.55700000000003,0.28999999999999992,275.26200000000006
2018-11-23,16:30,327.687,275.41033333333337,93857.633333333331,79.238333333333330,324.89666666666670,284.01766666666668,43.489000000000004,238.41800000000001,466.03133333333329,3.2066666666666674,124.03266666666667,0.28999999999999992,275.25900000000007
2018-11-23,17:00,327.708,276.25166666666667,93807.266666666663,75.668333333333322,328.92100000000011,283.05366666666669,58.264666666666663,338.81600000000003,655.56000000000017,3.7233333333333340,127.47866666666668,0.28999999999999992,275.26566666666679
2018-11-23,17:30,327.729,277.02199999999999,93757.833333333328,72.340999999999994,331.58633333333330,283.73499999999996,42.058666666666674,253.52766666666665,502.26599999999996,3.3966666666666665,119.86700000000000,0.28999999999999992,275.26733333333340
2018-11-23,18:00,327.749,277.05133333333339,93705.000000000000,72.058666666666653,331.92466666666667,289.15233333333333,41.352000000000011,240.91966666666667,485.99333333333328,2.9866666666666664,117.61033333333332,0.28999999999999992,275.26133333333348
2018-11-23,18:30,327.770,277.93833333333339,93650.600000000006,68.080999999999989,335.54733333333331,290.08866666666660,42.645333333333340,256.24866666666662,510.24966666666671,3.1866666666666665,122.86666666666666,0.28999999999999992,275.26500000000010
2018-11-23,19:00,327.791,278.73899999999986,93595.066666666666,62.571666666666680,338.22833333333341,295.60633333333334,43.333666666666659,248.51433333333335,499.11266666666666,3.3899999999999997,115.91133333333333,0.28999999999999992,275.26133333333348
2018-11-23,19:30,327.812,278.80366666666663,93553.899999999994,61.708666666666680,338.86500000000001,296.43166666666662,44.065333333333328,258.53233333333333,515.21200000000010,3.5466666666666673,134.40100000000001,0.28999999999999992,275.26633333333336
2018-11-23,20:00,327.833,278.19966666666670,93512.699999999997,64.734333333333339,335.56433333333342,294.41466666666662,25.872666666666664,146.44066666666669,296.97300000000001,4.0766666666666662,109.66600000000000,0.28999999999999992,275.26433333333347
2018-11-23,20:30,327.854,277.86799999999999,93476.233333333337,66.670666666666662,334.24533333333335,298.23266666666666,25.863000000000000,149.42133333333337,299.61599999999999,3.6566666666666676,100.71066666666665,0.28999999999999992,275.26766666666680
2018-11-23,21:00,327.874,278.15566666666672,93445.366666666669,65.409000000000006,334.81666666666666,295.72633333333334,18.505333333333329,105.76566666666669,209.70666666666662,3.1000000000000005,136.33366666666669,0.28999999999999992,275.26833333333337
2018-11-23,21:30,327.895,278.00100000000009,93424.266666666663,66.097333333333339,333.72433333333339,297.67966666666666,13.999333333333336,84.506999999999991,158.17700000000002,3.8166666666666660,107.18900000000001,0.28999999999999992,275.26700000000005
2018-11-23,22:00,327.916,277.66333333333336,93413.133333333331,67.256000000000014,331.90599999999995,288.81166666666661,6.1870000000000003,33.343333333333320,64.553666666666672,3.2333333333333334,128.61099999999999,0.28999999999999992,275.26633333333336
2018-11-23,22:30,327.937,277.23300000000000,93394.066666666666,68.598666666666674,329.97866666666670,291.56133333333327,1.1516666666666666,3.0833333333333335,10.196000000000003,3.6000000000000001,104.82233333333333,0.28999999999999992,275.26833333333349
2018-11-23,23:00,327.958,277.01433333333335,93379.066666666666,69.702666666666659,329.15866666666653,296.83400000000006,0.25566666666666665,-1.5933333333333335,0.31600000000000006,3.8200000000000012,106.86666666666666,0.28999999999999992,275.26833333333337
2018-11-23,23:30,327.979,276.90433333333323,93371.566666666666,71.326666666666668,328.89366666666666,298.62433333333331,0.17466666666666669,-1.6576666666666668,-1.10000000000000028E-002,3.8766666666666665,103.78933333333335,0.28999999999999992,275.26633333333342
2018-11-24,00:00,328.000,276.72699999999998,93352.766666666663,73.484666666666669,328.21866666666671,297.24600000000009,0.18433333333333335,-1.6966666666666668,-1.63333333333333351E-002,4.3533333333333335,110.38833333333332,0.28999999999999992,275.26100000000014
